GLOBALSTAR M076 [+]

Last updated on July 6, 2021, 3:36 p.m. UTC

1 37190U 10054C   21186.83792993 -.00000099  00000-0  24821-4 0  9998
2 37190  52.0012 210.1211 0000427  43.9910 126.8974 12.62267597494628
UTC
Height (km)
Latitude
Longitude
Inclination
Orbital Period
UTC large
Height (km)
Speed (km/s)
/
Latitude / Longitude
Inclination (degrees)
Orbital Period (minutes)
Azimuth
Elevation
Range (km)
Doppler Factor
iOS Compass Heading
iOS Angle